Regional Weather Roundup
Issued by NWS

Home | Current Version | Previous Version | Graphics & Text | Print | Product List | Glossary On
Versions: 1 2 3 4 5 6 7 8 9 10 11 12 13 14 15 16 17 18 19 20 21 22 23 24 25 26 27 28 29 30 31 32 33 34 35 36 37 38 39 40 41 42 43 44 45 46 47 48 49 50
000
ASUS43 KTOP 211908
RWRKS

WEATHER ROUNDUP FOR KANSAS
NATIONAL WEATHER SERVICE GOODLAND KS
200 PM CDT SAT APR 21 2018

NOTE:  "FAIR" INDICATES FEW OR NO CLOUDS BELOW 12,000 FEET WITH NO
SIGNIFICANT WEATHER AND/OR OBSTRUCTIONS TO VISIBILITY.

KSZ001>006-013>018-027>032-041>047-212000-
NORTHWEST KANSAS

CITY           SKY/WX    TMP DP  RH WIND       PRES   REMARKS
GOODLAND       CLOUDY    41  38  89 NE10      30.17F
HAYS           CLOUDY    44  43  96 E12       30.17S
HILL CITY      CLOUDY    45  43  93 NE12      30.19F
RUSSELL        LGT RAIN  45  45 100 NE14      30.16F
$$

KSZ061>065-074>080-084>089-212000-
SOUTHWEST KANSAS

CITY           SKY/WX    TMP DP  RH WIND       PRES   REMARKS
DODGE CITY     CLOUDY    46  43  89 NE7       30.11R FOG
ELKHART        CLOUDY    47  44  91 N15       30.11S
GARDEN CITY    CLOUDY    45  43  93 NE15      30.12F
GREAT BEND     LGT RAIN  46  44  93 E13       30.15S
LIBERAL        CLOUDY    46  44  93 N13       30.11R
PRATT          DRIZZLE   45  43  94 NE6       30.12S
$$

KSZ066>073-081>083-090>101-212000-
SOUTHEAST KANSAS

CITY           SKY/WX    TMP DP  RH WIND       PRES   REMARKS
CHANUTE        CLOUDY    57  39  51 E7        30.12R
COFFEYVILLE    LGT RAIN  54  48  80 NW7       30.09F
HUTCHINSON     LGT RAIN  47  45  93 NE9       30.14S
MEDICINE LODGE   N/A     47  45  93 E8        30.09F
NEWTON         LGT RAIN  43  42  97 NE9       30.15S
PARSONS        LGT RAIN  56  44  64 VRB3      30.11F
WICHITA INTL   LGT RAIN  47  45  93 NE16      30.12F
WICHITA JABRA  RAIN      45  44  97 NE10      30.13F FOG
WICHITA MCCONL RAIN      45  45 100 E13       30.12
WINFIELD       RAIN      45  45 100 NE10      30.12F
$$

KSZ007>012-019>026-033>040-048>060-102>105-212000-
NORTHEAST KANSAS

CITY           SKY/WX    TMP DP  RH WIND       PRES   REMARKS
CONCORDIA      CLOUDY    45  41  86 E12       30.20F
EMPORIA        LGT RAIN  47  42  83 NE14      30.16F
LAWRENCE       CLOUDY    54  36  50 N7        30.18F
MANHATTAN      LGT RAIN  47  44  90 NE10      30.21F FOG
MARYSVILLE     RAIN      45  41  87 E10       30.22F
OLATHE IND     CLOUDY    59  34  39 NE12      30.16F
OLATHE EXE     CLOUDY    59  35  40 E9        30.15F
SALINA         CLOUDY    47  44  90 E12G21    30.18F
TOPEKA BILLARD CLOUDY    48  45  89 N9        30.19F
TOPEKA FORBES  CLOUDY    50  44  80 N9        30.17F
$$




USA.gov is the U.S. government's official web portal to all federal, state and local government web resources and services.